User: anonymous   Login
Location: Centerville
(32.8776°N, 96.6203°W)
Time: 06:44:51
(UTC+00:00)
Language:

Delta 128 - Orbit

View from above orbital plane
View from above orbital plane
View from above satellite
View from above satellite

Ground track
Ground track

The orbit data is extracted from the following two-line orbital elements,

1  9786U 77005B   21267.73230827  .00000282  00000-0  53593-4 0  9990
2  9786  28.0121 290.6335 0416491 255.8606  99.5333 13.94648497270849
Epoch (UTC): 24 September 2021 17:34:31
Eccentricity: 0.0416491
inclination: 28.0121°
perigee height: 609 km
apogee height: 1216 km
right ascension of ascending node: 290.6335°
argument of perigee: 255.8606°
revolutions per day: 13.94648497
mean anomaly at epoch: 99.5333°
orbit number at epoch: 27084

The dashed part of the orbit path shows where the satellite is in the earth's shadow,  

DLR